Погода в Вабуше

Канада     52°53′56″N   66°52′14″W
темп.,
°C
ветер,
м/с
пор.,
м/с
влажн.,
%
обл.,
%
осадки,
мм/ч
давл.,
гПа
погр.,
м
14 мая, пт
пт1400:000с279899 0.1 1019453
03:00−1ссз2597100 0.3 1019331
06:00−1с2692100 0.2 1020662
09:000с467487 0.2 1021867
12:00+2с456783 0.1 10211153
15:00+3с456597 0.1 10211203
18:00+2с3573100 0.0 1022733
21:00+1с2585100 0.1 1023228
15 мая, сб
сб1500:000ссв1593100 0.0 1023159
03:00−1св1395100 0.0 1023133
06:00−1св119785 0.1 102470
09:00+3юв127237 0.1 1024801
12:00+5юв335855 0.1 10231220
15:00+8юв3347100 0.1 10211603
18:00+8вюв3348100 0.0 10211219
21:00+4вюв5970100 0.0 1022395
16 мая, вс
вс1600:00+2вюв388213 0.0 1023219
03:000юв22935 0.0 102419
06:00+2ююв2792100 0.0 1024380
09:00+3ю3694100 0.0 1024406
12:00+5ююз3588100 0.0 1024562
15:00+9юз3566100 0.1 10221148
18:00+9юз4661100 0.2 10211113
21:00+6ююз227895 0.3 102323
17 мая, пн
пн1700:00+3ю2695100 0.0 1024133
03:00+3ю3797100 0.0 1023158
06:00+3ю3894100 0.0 1023242
09:00+6ююз478096 0.0 1023491
12:00+12юз5657100 0.0 10201078
15:00+15ююз464492 0.0 10161904
18:00+16ююз5941100 0.1 10152179
21:00+12юз4960100 0.1 1015330
18 мая, вт
вт1800:00+9ююз51285100 1.3 1015498
03:00+5сз5890100 4.1 1017713
06:00+2ссз61072100 0.7 1021815
09:00+2ссз676099 0.8 10241125
12:00+5ссз56445 0.0 10251345
15:00+7с56321 0.0 10241620
18:00+8с442912 0.0 10241650
21:00+5св1138100 0.0 102316